Flag for U.S.A. Weather past 2 weeks in Anchorage, Alaska, U.S.A.

Now
52 °F

Low clouds.


Feels Like: 51 °F
Forecast: 49 / 57 °F
Wind: 3 mph from Northwest

Location: Lake Hood Seaplane

Current Time: Sep 19, 2014 at 4:11:10 PM

Latest Report: Sep 19, 2014 at 3:00 PM


Visibility: 10 mi

Pressure: 29.29 "Hg

Humidity: 88%

Dew point: 48 °F

Location of AnchorageLocation

Historic Weather in Anchorage — Graph

°F

Anchorage temperature yesterday

Maximum temperature yesterday: 50 °F (at 12:53 AM)
Minimum temperature yesterday: 48 °F (at 11:03 AM)
Average temperature yesterday: 50 °F

Past Weeks' High & Low Weather Summary

 TemperatureHumidityPressure
High65 °F (Sep 11, 3:53 PM)94% (Sep 5, 6:01 PM)30.15 "Hg (Sep 5, 6:01 PM)
Low44 °F (Sep 7, 4:53 AM)36% (Sep 14, 8:53 PM)29.00 "Hg (Sep 18, 5:53 PM)
Average53 °F81%29.74 "Hg
* Reported Sep 4 3:53 PM — Sep 19 3:00 PM, Anchorage, Weather by CustomWeather, © 2014

Note: Actual official high and low records may vary slightly from our data, if they occured in-between our weather recording intervals... More about our weather records

Advertising

Anchorage weather history for previous 24 hours

 ConditionsComfort  
Time TempWeatherWind HumidityBarometerVisibility
3:00 PM
Sep 19
52 °FLow clouds.3 mph88%29.29 "Hg10 mi
1:53 PM53 °FLow clouds.No wind83%29.27 "Hg10 mi
12:53 PM51 °FLow clouds.No wind89%29.26 "Hg10 mi
12:03 PM52 °FLight rain. Mostly cloudy.No wind88%29.24 "Hg10 mi
10:53 AM50 °FLight rain. Mostly cloudy.3 mph89%29.22 "Hg8 mi
9:53 AM50 °FLight rain. Low clouds.No wind93%29.20 "Hg7 mi
8:53 AM50 °FLight rain. Low clouds.No wind89%29.18 "Hg8 mi
7:53 AM50 °FLight rain. Low clouds.No wind89%29.15 "Hg9 mi
6:53 AM50 °FLight rain. Mostly cloudy.No wind93%29.13 "Hg7 mi
6:01 AM50 °FLight rain. Mostly cloudy.No wind88%29.12 "Hg10 mi
5:53 AM50 °FLight rain. Mostly cloudy.No wind89%29.12 "Hg9 mi
4:53 AM50 °FLight rain. Low clouds.No wind89%29.11 "Hg10 mi
4:04 AM50 °FLight rain. Mostly cloudy.3 mph88%29.10 "Hg10 mi
3:53 AM50 °FLight rain. Mostly cloudy.3 mph89%29.10 "Hg8 mi
2:53 AM50 °FLight rain. Low clouds.5 mph89%29.09 "Hg10 mi
1:53 AM50 °FLight rain. Low clouds.5 mph89%29.08 "Hg10 mi
12:53 AM50 °FLow clouds.6 mph89%29.06 "Hg10 mi
11:53 PM
Sep 18
50 °FLow clouds.6 mph89%29.05 "Hg10 mi
10:53 PM50 °FLow clouds.3 mph89%29.03 "Hg10 mi
9:53 PM50 °FLight rain. Low clouds.6 mph89%29.02 "Hg10 mi
8:53 PM50 °FLight rain. Low clouds.6 mph89%29.01 "Hg10 mi
7:53 PM50 °FLight rain. Low clouds.6 mph89%29.00 "Hg10 mi
6:53 PM50 °FLow clouds.6 mph89%29.00 "Hg10 mi
5:53 PM50 °FLight rain. Low clouds.8 mph86%29.00 "Hg9 mi
4:53 PM50 °FLight rain. Low clouds.6 mph86%29.00 "Hg10 mi
Weather by CustomWeather, © 2014

See weather overviewHow to use our weather pages